Printer-friendly version
Follow the MPC on Twitter Follow the MPC on Facebook The MPC blog
Minor Planet Center

MPEC 2010-L26 : 2010 LH14

The following Minor Planet Electronic Circular may be linked-to from your own Web pages, but must not otherwise be redistributed electronically.

A form allowing access to any MPEC is at the bottom of this page.


Read MPEC 2010-L25 Read MPEC 2010-L27


M.P.E.C. 2010-L26                                Issued 2010 June 6, 23:16 UT

     The Minor Planet Electronic Circulars contain information on unusual
         minor planets and routine data on comets.  They are published
   on behalf of Commission 20 of the International Astronomical Union by the
          Minor Planet Center, Smithsonian Astrophysical Observatory,
                          Cambridge, MA 02138, U.S.A.

             Prepared using the Tamkin Foundation Computer Network

                              MPC@CFA.HARVARD.EDU
       URL http://www.minorplanetcenter.org/iau/mpc.html  ISSN 1523-6714

                                   2010 LH14

Observations:
     K10L14H* S2010 06 02.80343 11 56 14.84 +28 09 03.6          21   R EL026C51
     K10L14H  s2010 06 02.80343 1 - 5115.2942 + 2588.0373 + 3847.9163   EL026C51
     K10L14H  S2010 06 02.86965 11 56 00.88 +28 16 00.8                 EL026C51
     K10L14H  s2010 06 02.86965 1 - 5095.3289 + 2577.8469 + 3881.1761   EL026C51
     K10L14H  S2010 06 02.93586 11 55 46.89 +28 23 00.4                 EL026C51
     K10L14H  s2010 06 02.93586 1 - 5075.2356 + 2567.5978 + 3914.1199   EL026C51
     K10L14H  S2010 06 03.00195 11 55 32.90 +28 30 01.8                 EL026C51
     K10L14H  s2010 06 03.00195 1 - 5103.0774 + 2566.3034 + 3878.5207   EL026C51
     K10L14H  S2010 06 03.13425 11 55 04.58 +28 44 07.6                 EL026C51
     K10L14H  s2010 06 03.13425 1 - 5110.9432 + 2555.0640 + 3875.1961   EL026C51
     K10L14H tC2010 06 06.19139 11 42 26.69 +34 35 09.0          20.3 V EL026291
     K10L14H tC2010 06 06.19590 11 42 25.35 +34 35 40.1          20.2 V EL026291
     K10L14H tC2010 06 06.20040 11 42 24.07 +34 36 10.0          20.4 V EL026291
     K10L14H KC2010 06 06.88609 11 39 04.15 +36 02 00.5          20.1 R EL026J04
     K10L14H KC2010 06 06.88747 11 39 03.66 +36 02 11.2          20.0 R EL026J04
     K10L14H KC2010 06 06.88902 11 39 03.15 +36 02 22.7          19.9 R EL026J04

Observer details:
291 LPL/Spacewatch II.  Observer J. V. Scotti.  1.8-m f/2.7 reflector + CCD.
J04 ESA Optical Ground Station, Tenerife.  Observer D. Abreu.  Measurers
    M. Busch, D. Koschny.  1.0-m f/4.4 reflector + CCD.
C51 WISE.  Measurers A. Mainzer, E. Wright, J. Bauer, T. Grav, J. Dailey, J.
    Masiero, R. Cutri, R. McMillan, R. Walker.
    (http://wise.ssl.berkeley.edu/mission_sci.html)

Orbital elements:
2010 LH14                                                Earth MOID = 0.0552 AU
Epoch 2010 July 23.0 TT = JDT 2455400.5                 MPC
M   5.11514              (2000.0)            P               Q
n   0.29209726     Peri.   80.37982     +0.30493292     +0.95160884
a   2.2496643      Node   207.46814     -0.90302387     +0.27616746
e   0.5848211      Incl.    4.74609     -0.30259512     +0.13480407
P   3.37           H   22.0           G   0.15           U   8
Residuals in seconds of arc
100602 C51  0.3+  0.5+    100603 C51  0.2+  0.2+    100606 J04  0.1+  0.3-
100602 C51  0.3-  0.5-    100606 291  0.3-  0.7+    100606 J04  0.2-  0.1+
100602 C51  0.3-  0.4-    100606 291  0.4+  0.8-    100606 J04  0.1-  0.1-
100603 C51  0.2+  0.1+    100606 291 (1.8+  3.4-)

Ephemeris:
2010 LH14                a,e,i = 2.25, 0.58, 5                   q = 0.9340
Date    TT    R. A. (2000) Decl.     Delta      r     Elong.  Phase     V
2010 06 03    11 55.52   +28 29.9    0.123    1.031    94.2    79.0    20.3
2010 06 13    10 53.76   +50 23.1    0.0988   0.982    67.6   107.0    20.9
2010 06 23    07 03.32   +67 59.3    0.0993   0.949    45.4   130.3    22.6
2010 07 03    03 41.45   +56 35.4    0.129    0.935    47.5   126.7    22.8
2010 07 13    02 57.70   +44 50.2    0.173    0.940    59.1   111.8    22.3
2010 07 23    02 48.22   +37 45.5    0.220    0.964    70.2    97.4    22.1
2010 08 02    02 47.58   +33 17.5    0.264    1.005    80.3    84.7    22.1
2010 08 12    02 47.87   +30 04.4    0.302    1.060    90.4    73.0    22.1
2010 08 22    02 45.38   +27 19.3    0.334    1.125   101.2    61.9    22.1
2010 09 01    02 38.43   +24 35.3    0.361    1.198   113.2    50.8    22.1
2010 09 11    02 26.42   +21 36.5    0.388    1.276   126.4    39.4    22.0
2010 09 21    02 10.30   +18 19.5    0.420    1.356   140.9    27.8    22.0
2010 10 01    01 52.41   +14 55.2    0.465    1.439   156.0    16.5    22.0
2010 10 11    01 35.44   +11 43.8    0.527    1.521   170.9     6.0    22.0
2010 10 21    01 21.72   +09 05.3    0.610    1.604   174.9     3.2    22.3
2010 10 31    01 12.34   +07 09.8    0.712    1.685   162.1    10.4    23.1
2010 11 10    01 07.37   +05 57.0    0.835    1.765   150.5    16.1    23.7

Carl W. Hergenrother         (C) Copyright 2010 MPC           M.P.E.C. 2010-L26

Read MPEC 2010-L25 Read MPEC 2010-L27


MPEC number:

Enter an MPEC number in one of the following forms:

  • 1997-B01 (the full form)
  • J97B01 (the packed version of the full form)
  • B01 (the abbreviated form)

Valid HTML 4.01!